Weather History for Kiruna, Sweden

Change the Weather History Date:

Thursday, February 7, 2013

  Actual Average Record
Temperature  
Mean Temperature -10 °F -  
Max Temperature -7 °F - - ()
Min Temperature -14 °F - - ()
Degree Days  
Heating Degree Days 76    
Moisture  
Dew Point -17 °F    
Average Humidity 81    
Maximum Humidity 84    
Minimum Humidity 77    
Precipitation  
Precipitation 0.00 in - - ()
Sea Level Pressure  
Sea Level Pressure 29.84 in    
Wind  
Wind Speed 3 mph ()    
Max Wind Speed 9 mph    
Max Gust Speed -    
Visibility 5.6 miles    
Events Fog , Snow    
T = Trace of Precipitation, MM = Missing Value Source: Averaged Metar Reports

Daily Weather History Graph

Daily Weather History Graph

Search for Another Location

Airport:

Trip Planner

Search our weather history database for the weather conditions in past years. The results will help you decide how hot, cold, wet, or windy it might be!

Date:

Astronomy

Feb. 07, 2013 Rise Set
Actual Time 8:28 AM CET 3:18 PM CET
Civil Twilight 7:22 AM CET 4:24 PM CET
Nautical Twilight 6:15 AM CET 5:31 PM CET
Astronomical Twilight 5:11 AM CET 6:35 PM CET
Moon 7:06 AM CET (2/7) 11:10 AM CET (2/7)
Length of Visible Light 9h 02m
Length of Day
6h 50m
Waning Crescent, 11% of the Moon is Illuminated
Feb 7
Waning Crescent
Feb 10
New
Feb 17
First Quarter
Feb 25
Full
Mar 4
Last Quarter

Hourly Weather History & Observations

Time (CET) Temp. Windchill Dew Point Humidity Pressure Visibility Wind Dir Wind Speed Gust Speed Precip Events Conditions
12:20 AM -7.6 °F -16.5 °F -11.2 °F 84% 29.77 in 6.2 mi SW 3.5 mph - N/A   Mostly Cloudy
12:50 AM -9.4 °F -18.6 °F -13.0 °F 84% 29.77 in 6.2 mi SW 3.5 mph - N/A   Overcast
1:20 AM -7.6 °F -16.5 °F -11.2 °F 84% 29.77 in - SW 3.5 mph - N/A Snow Light Snow
1:50 AM -7.6 °F - -11.2 °F 84% 29.77 in 6.2 mi SSW 2.3 mph - N/A   Overcast
2:20 AM -7.6 °F - -11.2 °F 84% 29.77 in 6.2 mi SSW 2.3 mph - N/A   Overcast
2:50 AM -9.4 °F -18.6 °F -13.0 °F 84% 29.77 in 6.2 mi SSW 3.5 mph - N/A   Ice Crystals
3:20 AM -11.2 °F - -16.6 °F 77% 29.77 in 6.2 mi SSW 2.3 mph - N/A   Overcast
3:50 AM -11.2 °F - -16.6 °F 77% 29.77 in 6.2 mi SSW 2.3 mph - N/A   Overcast
4:20 AM -11.2 °F - -14.8 °F 84% 29.80 in 6.2 mi SW 2.3 mph - N/A   Overcast
4:50 AM -13.0 °F - -18.4 °F 77% 29.80 in 0.4 mi SW 2.3 mph - N/A Fog Light Freezing Fog
5:20 AM -13.0 °F - -16.6 °F 84% 29.80 in 0.5 mi SW 2.3 mph - N/A   Overcast
5:50 AM -13.0 °F - -18.4 °F 77% 29.80 in 6.2 mi SW 2.3 mph - N/A   Unknown
6:20 AM -14.8 °F - -20.2 °F 77% 29.80 in 6.2 mi SW 2.3 mph - N/A   Unknown
6:50 AM -13.0 °F - -18.4 °F 77% 29.80 in 6.2 mi SSW 2.3 mph - N/A   Unknown
7:20 AM -14.8 °F -24.8 °F -18.4 °F 84% 29.80 in 6.2 mi SW 3.5 mph - N/A   Mostly Cloudy
7:50 AM -13.0 °F -22.7 °F -18.4 °F 77% 29.80 in 6.2 mi SW 3.5 mph - N/A   Scattered Clouds
8:20 AM -14.8 °F -24.8 °F -18.4 °F 84% 29.83 in - SW 3.5 mph - N/A   Clear
8:50 AM -14.8 °F -24.8 °F -20.2 °F 77% 29.83 in 6.2 mi SW 3.5 mph - N/A   Unknown
9:20 AM -14.8 °F - -18.4 °F 84% 29.83 in - SW 2.3 mph - N/A   Clear
9:50 AM -14.8 °F - -20.2 °F 77% 29.83 in - SW 2.3 mph - N/A   Clear
10:20 AM -14.8 °F - -18.4 °F 84% 29.83 in 6.2 mi SSW 2.3 mph - N/A   Partly Cloudy
10:50 AM -13.0 °F - -18.4 °F 77% 29.83 in - SW 2.3 mph - N/A   Clear
11:20 AM -13.0 °F - -18.4 °F 77% 29.83 in 6.2 mi WSW 2.3 mph - N/A   Partly Cloudy
11:50 AM -13.0 °F - -18.4 °F 77% 29.83 in 6.2 mi WSW 2.3 mph - N/A   Partly Cloudy
12:20 PM -14.8 °F - -18.4 °F 84% 29.86 in - SW 2.3 mph - N/A   Clear
12:50 PM -13.0 °F - -18.4 °F 77% 29.83 in 6.2 mi SW 1.2 mph - N/A   Unknown
1:20 PM -11.2 °F - -14.8 °F 84% 29.83 in - SW 2.3 mph - N/A   Clear
1:50 PM -11.2 °F - -16.6 °F 77% 29.86 in - WSW 2.3 mph - N/A   Clear
2:20 PM -13.0 °F - -16.6 °F 84% 29.86 in - SW 2.3 mph - N/A   Clear
2:48 PM -13.0 °F - -16.6 °F 84% 29.86 in - SSW 1.2 mph - N/A   Clear
3:20 PM -13.0 °F - -18.4 °F 77% 29.86 in - Calm Calm - N/A   Clear
3:50 PM -14.8 °F - -20.2 °F 77% 29.86 in - SSW 1.2 mph - N/A   Clear
4:20 PM -13.0 °F - -18.4 °F 77% 29.86 in - SW 1.2 mph - N/A   Clear
4:50 PM -11.2 °F - -16.6 °F 77% 29.86 in - SW 1.2 mph - N/A   Clear
5:20 PM -13.0 °F - -16.6 °F 84% 29.89 in - WSW 2.3 mph - N/A   Clear
5:50 PM -11.2 °F - -16.6 °F 77% 29.89 in - Calm Calm - N/A   Clear
6:20 PM -13.0 °F -22.7 °F -18.4 °F 77% 29.89 in - SW 3.5 mph - N/A   Clear
6:50 PM -13.0 °F - -16.6 °F 84% 29.89 in - SW 2.3 mph - N/A   Clear
7:20 PM -11.2 °F -24.8 °F -14.8 °F 84% 29.89 in - SW 5.8 mph - N/A   Clear
7:50 PM -11.2 °F -24.8 °F -16.6 °F 77% 29.89 in - SW 5.8 mph - N/A   Clear
8:20 PM -14.8 °F -29.1 °F -18.4 °F 84% 29.89 in - WSW 5.8 mph - N/A   Clear
8:50 PM -14.8 °F -27.2 °F -20.2 °F 77% 29.92 in - SW 4.6 mph - N/A   Clear
9:20 PM -14.8 °F -30.8 °F -18.4 °F 84% 29.92 in - SW 6.9 mph - N/A   Clear
9:50 PM -11.2 °F -24.8 °F -16.6 °F 77% 29.92 in - WSW 5.8 mph - N/A   Clear
10:20 PM -14.8 °F -27.2 °F -18.4 °F 84% 29.92 in - SW 4.6 mph - N/A   Clear
10:50 PM -13.0 °F -28.6 °F -16.6 °F 84% 29.92 in - SW 6.9 mph - N/A   Clear
11:20 PM -11.2 °F -26.4 °F -14.8 °F 84% 29.92 in - SW 6.9 mph - N/A   Clear
11:50 PM -13.0 °F -31.3 °F -16.6 °F 84% 29.92 in - SW 9.2 mph - N/A   Clear